Home   Weather   Rio de Janeiro   Past weeks

Flag for Brazil Past Weather in Rio de Janeiro, Rio de Janeiro, Brazil — Yesterday and Last 2 Weeks

Now
91 °F

Sunny.


Feels Like: 103 °F
Forecast: 73 / 95 °F
Wind: 17 mph from South

Location: Rio De Janeiro Airport

Current Time: Jan 18, 2017 at 6:17:02 pm

Latest Report: Jan 18, 2017 at 5:00 pm


Visibility: 10 mi

Pressure: 29.74 "Hg

Humidity: 59%

Dew Point: 75 °F

Location of Rio de JaneiroLocation

Past Weather in Rio de Janeiro — Graph

°F

Rio de Janeiro Temperature Yesterday

Maximum temperature yesterday: 99 °F (at 1:00 pm)
Minimum temperature yesterday: 81 °F (at 3:00 am)
Average temperature yesterday: 88 °F

High & Low Weather Summary for the Past Weeks

 TemperatureHumidityPressure
High100 °F (Jan 5, 1:00 pm)94% (Jan 12, 3:00 am)29.95 "Hg (Jan 12, 3:00 am)
Low77 °F (Jan 4, 6:00 am)34% (Jan 17, 5:00 pm)29.68 "Hg (Jan 9, 5:00 pm)
Average86 °F71%29.81 "Hg
* Reported Jan 3 5:00 pm — Jan 18 5:00 pm, Rio de Janeiro, Weather by CustomWeather, © 2017

Note: Actual official high and low records may vary slightly from our data, if they occured in-between our weather recording intervals... More about our weather records

Advertising

Rio de Janeiro Weather History for the Previous 24 Hours

Scroll right to see more
 ConditionsComfort  
Time TempWeatherWind HumidityBarometerVisibility
5:00 pm
Wed, Jan 18
91 °FSunny.17 mph59%29.74 "Hg10 mi
4:00 pm95 °FSunny.14 mph47%29.74 "Hg10 mi
3:00 pm97 °FSunny.9 mph47%29.77 "Hg10 mi
2:00 pm97 °FSunny.6 mph37%29.77 "Hg10 mi
1:00 pm95 °FSunny.3 mph41%29.80 "Hg10 mi
12:00 pm93 °FSunny.3 mph47%29.83 "Hg10 mi
11:00 am91 °FSunny.7 mph49%29.83 "Hg10 mi
10:00 am91 °FSunny.7 mph49%29.83 "Hg10 mi
9:00 am91 °FSunny.9 mph49%29.80 "Hg10 mi
8:00 am86 °FSunny.2 mph59%29.80 "Hg10 mi
7:00 am82 °FSunny.7 mph66%29.80 "Hg10 mi
6:00 am82 °FClear.3 mph62%29.77 "Hg10 mi
5:00 am81 °FClear.3 mph66%29.77 "Hg10 mi
4:00 am81 °FClear.6 mph70%29.77 "Hg10 mi
3:00 am82 °FClear.7 mph66%29.77 "Hg10 mi
2:00 am82 °FClear.7 mph70%29.77 "Hg10 mi
1:00 am82 °FClear.5 mph66%29.77 "Hg10 mi
12:00 am84 °FClear.6 mph62%29.80 "Hg10 mi
11:00 pm
Tue, Jan 17
86 °FClear.3 mph59%29.80 "Hg10 mi
10:00 pm86 °FClear.12 mph62%29.77 "Hg10 mi
9:00 pm88 °FClear.13 mph59%29.74 "Hg10 mi
8:00 pm90 °FClear.10 mph52%29.74 "Hg10 mi
7:00 pm90 °FSunny.6 mph63%29.71 "Hg10 mi
6:00 pm91 °FSunny.7 mph59%29.71 "Hg10 mi
Weather by CustomWeather, © 2017

See weather overviewHow to use our weather pages